Starlink 4493

operational
NORAD ID: 53533 Int'l Des: 2022-101 Owner: SPXS Country: US Constellation: starlink
LEOCIRCULAR

Starlink 4493について

説明を読み込み中...

リアルタイム位置

3D地球を読み込み中...

次回通過

高度履歴

Altitude vs Time

uPlot chart will show altitude changes over time

軌道要素

1 53533U 22101G 25303.30501410 .00001029 00000-0 82751-4 0 9991
2 53533 53.2183 299.4321 0001675 104.0487 256.0691 15.08844223176488
Epoch: Oct 30, 2025 • Age: 26 hours

現在のステータス

高度 541.4 km
速度 7.60 km/s
衛星直下点 35.51°N, 97.6°W
打ち上げ日 Aug 19, 2022
運用期間 3.1 years
タイプ internet

技術仕様

分類 Payload
質量 300.00 kg
乾燥質量 290.00 kg
総質量 300.00 kg
長さ 0.20 m
直径 2.80 m
スパン 9.00 m
形状 Box + pan
製造者 SPXS
バスタイプ Starlink
フェーズステータス In Orbit
所有者/国 SPXS/US

大規模コンステレーション

Loading constellations...